COSMOS 2251 DEB

Satellite information

Favourite Embed

Satellite Type and Status

DEBRISIN ORBIT

Key statistics

Satellite COSMOS 2251 DEB at a glance.

Uptime

11815

Days in orbit

Revolutions

≈ 14.6

Per day

Orbit

LEO

Low Earth Orbit

Inclination

74.0

Latest

Satellite identification and parameters

Extended collection of information and parameters for COSMOS 2251 DEB.

Object identification

Identified? True

Debris? True

Object name: COSMOS 2251 DEB

International designator: 1993-036AQG

Object number (NORAD): 35711

Object ID (CCSDS): 35711

Country: COMMONWEALTH OF INDEPENDENT STATES (CIS)

Current information (Y/N): Y

RCS size: SMALL

Orbital parameters

Period: 98.392 minutes

Inclination: 74.0459 deg

SMA: 7059.93 km

Apoapsis: 740.924 km

Periapsis: 622.667 km

RAAN: 327.7168 deg

Eccentricy: 0.00837522

Argument of periapsis: 83.5082 deg

Mean anomaly: 277.5613 deg

Mean motion: 14.63531793 rev/day

Mean motion (dot): 0.00001551 rev/day2

B* drag term: 0.00029003486 1/REarth

Two-line elements (TLE)

Creation date: Oct. 18, 2025, 2:17 a.m.

Reference frame: TEME

Reference center: EARTH

Epoch: Oct. 17, 2025, 7:56 p.m. UTC

TLE line 0: 0 COSMOS 2251 DEB

TLE line 1: 1 35711U 93036AQG 25290.83123909 .00001551 00000-0 29003-3 0 9990

TLE line 2: 2 35711 74.0459 327.7168 0083752 83.5082 277.5613 14.63531793869537

Live tracking on map

Real-time ground track for satellite COSMOS 2251 DEB.

In-orbit conjunctions

A list of the most updated potential collisions computed for object COSMOS 2251 DEB.

Target Orbit TCA Probability of collision Miss distance Type
SCOUT B-1 R/B SSO 2025-09-05 11:24:21 0.000107319 261.0 (m) ROCKET BODY
NOAA 16 DEB SSO 2025-02-21 09:55:50 0.0001620862 157.0 (m) DEBRIS
CZ-4C R/B SSO 2025-01-11 19:54:06 0.0001132459 514.0 (m) ROCKET BODY
CBERS 1 DEB SSO 2024-08-13 16:59:41 0.0001436339 283.0 (m) DEBRIS

Associated space launch

Military communications satellite. Destroyed in a collision with Iridium 33.

COSMOS 2251 DEB was lifted into orbit during the mission ‘Kosmos-3M | Strela-2M 51’, on board a Kosmos-3M space rocket.

The launch took place on June 16, 1993, 4:17 a.m. from 132/1 (132L).

For more information about the launch, click the button.

Launch to space Kosmos-3M | Strela-2M 51
Kosmos-3M | Strela-2M 51

Agency: N/A

Status: Launch Successful

Launch date: June 16, 1993, 4:17 a.m. UTC

Rocket: Kosmos-3M

Launch pad: 132/1 (132L)

Location: Plesetsk Cosmodrome, Russian Federation

...

Latest news about this satellite

There are no fresh news available about this satellite. Check back as we update our databases every day.


Newsletter sign-up

Weekly statistics, charts and insights to help you stay on top of the space industry.